Weather History for Hurlburt Field, FL

Change the Weather History Date:

Wednesday, January 16, 2013

  Actual Average Record
Temperature  
Mean Temperature 62 °F -  
Max Temperature 73 °F 59 °F 73 °F (2013)
Min Temperature 50 °F 40 °F 26 °F (2009)
Degree Days  
Heating Degree Days 3    
Growing Degree Days 12 (Base 50)    
Moisture  
Dew Point 67 °F    
Average Humidity 100    
Maximum Humidity 100    
Minimum Humidity 100    
Precipitation  
Precipitation 0.00 in - - ()
Sea Level Pressure  
Sea Level Pressure 29.97 in    
Wind  
Wind Speed 11 mph (South)    
Max Wind Speed 17 mph    
Max Gust Speed 20 mph    
Visibility 10 miles    
Events Rain    
Averages and records for this station are not official NWS values.
T = Trace of Precipitation, MM = Missing Value Source: NWS Daily Summary

Daily Weather History Graph

Daily Weather History Graph

Search for Another Location

Airport:

Trip Planner

Search our weather history database for the weather conditions in past years. The results will help you decide how hot, cold, wet, or windy it might be!

Date:

Astronomy

Jan. 16, 2013 Rise Set
Actual Time 6:44 AM CST 5:09 PM CST
Civil Twilight 6:18 AM CST 5:35 PM CST
Nautical Twilight 5:48 AM CST 6:04 PM CST
Astronomical Twilight 5:19 AM CST 6:33 PM CST
Moon 9:46 AM CST (1/16) 10:32 PM CST (1/16)
Length of Visible Light 11h 17m
Length of Day
10h 25m
Waxing Crescent, 28% of the Moon is Illuminated
Jan 16
Waxing Crescent
Jan 18
First Quarter
Jan 26
Full
Feb 3
Last Quarter
Feb 10
New

Hourly Weather History & Observations

Time (CST) Temp. Dew Point Humidity Pressure Visibility Wind Dir Wind Speed Gust Speed Precip Events Conditions
12:14 AM 68.0 °F 68.0 °F 100% 29.96 in 10.0 mi South 10.4 mph - N/A   Overcast
12:55 AM 68.0 °F 68.0 °F 100% 29.96 in 10.0 mi SSE 10.4 mph - N/A   Overcast
1:55 AM 69.8 °F 69.8 °F 100% 29.96 in 10.0 mi South 11.5 mph - N/A   Overcast
2:55 AM 69.8 °F 69.8 °F 100% 29.95 in 10.0 mi South 12.7 mph - N/A   Overcast
3:55 AM 69.8 °F 69.8 °F 100% 29.94 in 10.0 mi South 9.2 mph - N/A   Overcast
4:55 AM 69.8 °F 69.8 °F 100% 29.95 in 10.0 mi SSW 5.8 mph - N/A   Overcast
5:55 AM 69.4 °F 69.4 °F 100% 29.96 in 10.0 mi South 11.5 mph - N/A   Overcast
6:29 AM 69.8 °F 69.8 °F 100% 29.96 in 10.0 mi South 11.5 mph - N/A   Mostly Cloudy
6:55 AM 69.4 °F 69.4 °F 100% 29.97 in 10.0 mi South 9.2 mph - N/A   Mostly Cloudy
6:58 AM 69.8 °F 69.8 °F 100% 29.97 in 10.0 mi South 9.2 mph - N/A   Mostly Cloudy
7:30 AM 69.8 °F 69.8 °F 100% 29.98 in 10.0 mi South 12.7 mph - N/A   Mostly Cloudy
7:41 AM 69.8 °F 69.8 °F 100% 29.99 in 10.0 mi South 13.8 mph - N/A   Scattered Clouds
7:55 AM 70.0 °F 70.0 °F 100% 29.98 in 10.0 mi SSE 11.5 mph - N/A   Partly Cloudy
8:07 AM 69.8 °F 69.8 °F 100% 29.99 in 10.0 mi South 12.7 mph - N/A   Partly Cloudy
8:55 AM 72.0 °F 72.0 °F 100% 30.00 in 10.0 mi South 12.7 mph - N/A   Clear
9:10 AM 73.4 °F 73.4 °F 100% 30.00 in 10.0 mi SSE 15.0 mph - N/A   Mostly Cloudy
9:12 AM 73.4 °F 73.4 °F 100% 30.00 in 10.0 mi South 13.8 mph - N/A   Scattered Clouds
9:13 AM 73.4 °F 73.4 °F 100% 30.00 in 10.0 mi South 12.7 mph - N/A   Mostly Cloudy
9:18 AM 73.4 °F 73.4 °F 100% 30.00 in 10.0 mi South 13.8 mph - N/A   Mostly Cloudy
9:42 AM 71.6 °F 71.6 °F 100% 29.99 in 10.0 mi South 12.7 mph - N/A Rain Light Rain
9:43 AM 71.6 °F 71.6 °F 100% 29.99 in 10.0 mi SSE 13.8 mph - N/A   Mostly Cloudy
9:55 AM 71.4 °F 71.4 °F 100% 29.99 in 10.0 mi South 11.5 mph - 0.00 in   Mostly Cloudy
9:58 AM 71.6 °F 71.6 °F 100% 29.99 in 10.0 mi South 11.5 mph - N/A   Mostly Cloudy
10:18 AM 73.4 °F 73.4 °F 100% 29.97 in 10.0 mi South 12.7 mph 19.6 mph N/A   Overcast
10:59 AM 73.4 °F 73.4 °F 100% 29.96 in 10.0 mi South 17.3 mph - N/A   Overcast
11:28 AM 73.4 °F 73.4 °F 100% 29.94 in 10.0 mi South 15.0 mph - N/A   Overcast
11:59 AM 73.4 °F 73.4 °F 100% 29.94 in 10.0 mi South 16.1 mph - N/A   Mostly Cloudy
12:38 PM 71.6 °F 71.6 °F 100% 29.92 in 10.0 mi Variable 4.6 mph - N/A   Overcast
12:46 PM 71.6 °F 71.6 °F 100% 29.92 in 10.0 mi SW 9.2 mph - N/A   Overcast
12:55 PM 71.6 °F 71.6 °F 100% 29.94 in 10.0 mi South 11.5 mph - N/A   Overcast
1:56 PM 66.2 °F 66.2 °F 100% 29.94 in 3.0 mi WNW 6.9 mph - N/A Rain Light Rain
2:59 PM 64.4 °F 64.4 °F 100% 29.93 in 10.0 mi Variable 3.5 mph - N/A   Overcast
4:00 PM 62.6 °F 62.6 °F 100% 29.94 in 10.0 mi NNW 8.1 mph - N/A   Overcast
4:59 PM 57.2 °F 57.2 °F 100% 29.98 in 10.0 mi North 5.8 mph - N/A   Overcast
5:59 PM 55.4 °F 55.4 °F 100% 29.99 in 10.0 mi NNW 6.9 mph - N/A Rain Light Rain
6:56 PM 53.6 °F 53.6 °F 100% 29.99 in 10.0 mi North 9.2 mph - N/A Rain Light Rain
7:56 PM 53.6 °F 53.6 °F 100% 29.99 in 10.0 mi NNE 9.2 mph - N/A Rain Light Rain
9:00 PM 53.6 °F 53.6 °F 100% 30.01 in 10.0 mi WNW 6.9 mph - N/A   Light Drizzle
9:55 PM 53.6 °F 53.6 °F 100% 29.98 in 10.0 mi North 4.6 mph - N/A   Overcast
10:55 PM 51.8 °F 51.8 °F 100% 29.99 in 10.0 mi WNW 10.4 mph - N/A   Overcast
11:55 PM 50.0 °F 50.0 °F 100% 29.99 in 9.0 mi WNW 9.2 mph - N/A Rain Light Rain